Retour au catalogue

STARLINK-35148

ActifCommunicationsVLEO
NORAD 65844·PAYLOAD·🇺🇸 United States

Lancé Sep 29, 2025 depuis Vandenberg Space Force Base

Loading…

Prochains Passages (prochaines 24 heures)

TLE

FraisSource: CelesTrak SupGP

Époque: Sep 14, 2026, 21:04 UTC

1 65844C 25221X   26257.87826389  .00030146  00000+0  89094-3 0  2575
2 65844  53.1584 285.7444 0001237  94.1661 247.3431 15.34366207    11

Suivez STARLINK-35148 en temps réel avec AllMySat

Download on the App Store